Cumberland, WV

1:52 PM EDT on September 20, 2017 (GMT -0400)
Greater Cumberland Regional

Weather History for KCBE - September, 2013

Change the Weather History Date:

Thursday, September 12, 2013

  Actual Average (KMRB) Record (KMRB)
Temperature  
Mean Temperature 78 °F -  
Max Temperature 89 °F 81 °F 100 °F (1931)
Min Temperature 68 °F 56 °F 34 °F (1967)
Cooling Degree Days 14    
Growing Degree Days 28 (Base 50)    
Moisture  
Dew Point 65 °F    
Average Humidity 76    
Maximum Humidity 100    
Minimum Humidity 38    
Precipitation  
Precipitation 0.00 in - - ()
Sea Level Pressure  
Sea Level Pressure 29.94 in    
Wind  
Wind Speed 2 mph (West)    
Max Wind Speed 15 mph    
Max Gust Speed 38 mph    
Visibility 6 miles    
Events      
Averages and records for this station are not official NWS values.
T = Trace of Precipitation, MM = Missing Value Source: NWS Daily Summary

Daily Weather History Graph

Daily Weather History Graph

Search for Another Location

Airport or City:

Trip Planner

Search our weather history database for the weather conditions in past years. The results will help you decide how hot, cold, wet, or windy it might be!

Date:

Astronomy

Sep. 12, 2013 Rise Set
Actual Time 6:53 AM EDT 7:28 PM EDT
Civil Twilight 6:26 AM EDT 7:55 PM EDT
Nautical Twilight 5:54 AM EDT 8:27 PM EDT
Astronomical Twilight 5:21 AM EDT 8:59 PM EDT
Moon 2:18 PM EDT (9/12) No Moon Set
Length of Visible Light 13h 28m
Length of Day
12h 34m
Waxing Crescent, 50% of the Moon is Illuminated
Sep 12
Waxing Crescent
Sep 12
First Quarter
Sep 19
Full
Sep 26
Last Quarter
Oct 4
New

Hourly Weather History & Observations

Time (EDT) Temp. Heat Index Dew Point Humidity Pressure Visibility Wind Dir Wind Speed Gust Speed Precip Events Conditions
12:10 AM 69.8 °F - 68.0 °F 94% 30.09 in 4.0 mi Calm Calm - N/A   Clear
12:30 AM 69.8 °F - 68.0 °F 94% 30.08 in 5.0 mi Calm Calm - N/A   Scattered Clouds
12:50 AM 69.8 °F - 68.0 °F 94% 30.07 in 4.0 mi Calm Calm - N/A   Clear
1:10 AM 69.8 °F - 68.0 °F 94% 30.06 in 3.0 mi Calm Calm - N/A   Overcast
1:30 AM 69.8 °F - 68.0 °F 94% 30.06 in 1.2 mi Calm Calm - N/A   Overcast
1:50 AM 69.8 °F - 68.0 °F 94% 30.06 in 1.5 mi Calm Calm - N/A   Overcast
2:11 AM 69.8 °F - 68.0 °F 94% 30.05 in 2.5 mi Calm Calm - N/A   Overcast
2:31 AM 69.8 °F - 68.0 °F 94% 30.05 in 1.0 mi Calm Calm - N/A   Overcast
2:51 AM 69.8 °F - 68.0 °F 94% 30.05 in 0.2 mi Calm Calm - N/A   Overcast
3:11 AM 68.0 °F - 68.0 °F 100% 30.04 in 0.2 mi Calm Calm - N/A   Overcast
3:31 AM 69.8 °F - 68.0 °F 94% 30.03 in 0.2 mi Calm Calm - N/A   Overcast
3:51 AM 68.0 °F - 68.0 °F 100% 30.04 in 0.2 mi Calm Calm - N/A   Overcast
4:11 AM 68.0 °F - 68.0 °F 100% 30.03 in 0.2 mi Calm Calm - N/A   Overcast
4:31 AM 68.0 °F - 68.0 °F 100% 30.03 in 0.2 mi Calm Calm - N/A   Overcast
4:51 AM 68.0 °F - 68.0 °F 100% 30.02 in 0.5 mi Calm Calm - N/A   Overcast
5:11 AM 68.0 °F - 68.0 °F 100% 30.02 in 0.2 mi Calm Calm - N/A   Overcast
5:31 AM 68.0 °F - 68.0 °F 100% 30.02 in 0.2 mi Calm Calm - N/A   Overcast
5:51 AM 68.0 °F - 68.0 °F 100% 30.02 in 0.2 mi Calm Calm - N/A   Overcast
6:11 AM 68.0 °F - 68.0 °F 100% 30.02 in 0.5 mi Calm Calm - N/A   Overcast
6:31 AM 68.0 °F - 68.0 °F 100% 30.02 in 0.2 mi Calm Calm - N/A   Overcast
6:51 AM 68.0 °F - 68.0 °F 100% 30.02 in 0.2 mi Calm Calm - N/A   Overcast
7:11 AM 68.0 °F - 68.0 °F 100% 30.02 in 0.2 mi Calm Calm - N/A   Overcast
7:31 AM 68.0 °F - 68.0 °F 100% 30.02 in 0.2 mi Calm Calm - N/A   Overcast
7:51 AM 68.0 °F - 68.0 °F 100% 30.02 in 0.2 mi Calm Calm - N/A   Overcast
8:11 AM 68.0 °F - 68.0 °F 100% 30.02 in 1.0 mi Calm Calm - N/A   Overcast
8:46 AM 68.0 °F - 68.0 °F 100% 30.00 in 0.5 mi Calm Calm - N/A   Overcast
9:06 AM 69.8 °F - 69.8 °F 100% 30.00 in 1.8 mi Calm Calm - N/A   Overcast
9:26 AM 71.6 °F - 71.6 °F 100% 29.99 in 5.0 mi South 3.5 mph - N/A   Mostly Cloudy
9:46 AM 73.4 °F - 71.6 °F 94% 29.98 in 7.0 mi Calm Calm - N/A   Scattered Clouds
10:06 AM 73.4 °F - 69.8 °F 88% 29.97 in 7.0 mi Calm Calm - N/A   Clear
10:26 AM 77.0 °F - 69.8 °F 78% 29.97 in 7.0 mi NW 3.5 mph - N/A   Clear
10:46 AM 77.0 °F - 69.8 °F 78% 29.96 in 7.0 mi Calm Calm - N/A   Clear
11:06 AM 78.8 °F - 69.8 °F 74% 29.96 in 7.0 mi Calm Calm - N/A   Clear
11:26 AM 80.6 °F 83.9 °F 69.8 °F 70% 29.95 in 7.0 mi Calm Calm - N/A   Clear
11:46 AM 82.4 °F 86.3 °F 69.8 °F 66% 29.94 in 7.0 mi Calm Calm - N/A   Clear
12:06 PM 86.0 °F 90.4 °F 69.8 °F 58% 29.93 in 7.0 mi South 3.5 mph - N/A   Clear
12:26 PM 87.8 °F 91.4 °F 68.0 °F 52% 29.92 in 7.0 mi South 6.9 mph - N/A   Clear
12:46 PM 87.8 °F 89.4 °F 64.4 °F 46% 29.92 in 10.0 mi West 5.8 mph - N/A   Clear
1:06 PM 89.6 °F 91.1 °F 64.4 °F 43% 29.91 in 10.0 mi SW 9.2 mph - N/A   Clear
1:27 PM 89.6 °F 90.1 °F 62.6 °F 40% 29.90 in 10.0 mi WSW 8.1 mph - N/A   Scattered Clouds
1:47 PM 89.6 °F 89.5 °F 60.8 °F 38% 29.90 in 10.0 mi WSW 10.4 mph 17.3 mph N/A   Scattered Clouds
2:07 PM 87.8 °F 87.1 °F 59.0 °F 38% 29.89 in 10.0 mi West 10.4 mph 21.9 mph N/A   Clear
2:27 PM 87.8 °F 87.6 °F 60.8 °F 40% 29.88 in 10.0 mi West 15.0 mph 19.6 mph N/A   Scattered Clouds
2:47 PM 87.8 °F 87.6 °F 60.8 °F 40% 29.87 in 10.0 mi WNW 13.8 mph 25.3 mph N/A   Scattered Clouds
3:07 PM 84.2 °F 83.5 °F 57.2 °F 40% 29.88 in 10.0 mi West 9.2 mph 38.0 mph N/A   Scattered Clouds
3:27 PM 80.6 °F 80.8 °F 57.2 °F 45% 29.87 in 10.0 mi NW 3.5 mph 19.6 mph N/A   Scattered Clouds
3:47 PM 80.6 °F 81.1 °F 59.0 °F 48% 29.87 in 10.0 mi West 12.7 mph 26.5 mph N/A   Clear
4:07 PM 78.8 °F - 59.0 °F 51% 29.86 in 10.0 mi WNW 13.8 mph 20.7 mph N/A   Clear
4:27 PM 78.8 °F - 57.2 °F 47% 29.85 in 10.0 mi West 6.9 mph 20.7 mph N/A   Clear
4:47 PM 78.8 °F - 57.2 °F 47% 29.85 in 10.0 mi SW 9.2 mph 18.4 mph N/A   Clear
5:07 PM 77.0 °F - 59.0 °F 54% 29.83 in 10.0 mi WSW 8.1 mph - N/A   Clear
5:27 PM 77.0 °F - 59.0 °F 54% 29.84 in 10.0 mi SW 8.1 mph - N/A   Clear
5:47 PM 77.0 °F - 59.0 °F 54% 29.85 in 10.0 mi SW 4.6 mph - N/A   Clear
6:07 PM 77.0 °F - 59.0 °F 54% 29.85 in 10.0 mi Calm Calm - N/A   Scattered Clouds
6:27 PM 77.0 °F - 60.8 °F 57% 29.86 in 10.0 mi WNW 5.8 mph - N/A   Mostly Cloudy
6:47 PM 77.0 °F - 60.8 °F 57% 29.86 in 10.0 mi Calm Calm - N/A   Overcast
7:07 PM 75.2 °F - 60.8 °F 61% 29.85 in 10.0 mi West 8.1 mph - N/A   Scattered Clouds
7:27 PM 75.2 °F - 60.8 °F 61% 29.85 in 10.0 mi West 5.8 mph - N/A   Scattered Clouds
7:47 PM 75.2 °F - 60.8 °F 61% 29.85 in 10.0 mi West 5.8 mph - N/A   Mostly Cloudy
8:07 PM 75.2 °F - 60.8 °F 61% 29.85 in 10.0 mi West 8.1 mph - N/A   Mostly Cloudy
8:27 PM 75.2 °F - 60.8 °F 61% 29.85 in 10.0 mi West 6.9 mph - N/A   Mostly Cloudy
8:47 PM 73.4 °F - 60.8 °F 65% 29.85 in 10.0 mi West 5.8 mph - N/A   Scattered Clouds
9:07 PM 73.4 °F - 60.8 °F 65% 29.85 in 10.0 mi WNW 3.5 mph - N/A   Clear
9:27 PM 73.4 °F - 60.8 °F 65% 29.85 in 10.0 mi WNW 5.8 mph - N/A   Scattered Clouds
9:48 PM 69.8 °F - 64.4 °F 83% 29.85 in 7.0 mi West 4.6 mph - N/A   Mostly Cloudy
10:08 PM 71.6 °F - 62.6 °F 73% 29.85 in 10.0 mi Calm Calm - N/A   Scattered Clouds
10:28 PM 68.0 °F - 64.4 °F 88% 29.85 in 10.0 mi Calm Calm - N/A   Scattered Clouds
10:48 PM 68.0 °F - 64.4 °F 88% 29.84 in 10.0 mi East 3.5 mph - N/A   Clear
11:08 PM 68.0 °F - 64.4 °F 88% 29.84 in 10.0 mi Calm Calm - N/A   Clear
11:28 PM 68.0 °F - 64.4 °F 88% 29.85 in 10.0 mi Calm Calm - N/A   Clear
11:48 PM 68.0 °F - 64.4 °F 88% 29.84 in 7.0 mi ESE 3.5 mph - N/A   Clear